STARLINK-37548, 69027

Orbit data source: Space-Track

STARLINK-37548, 69027 is a payload satellite owned by SpaceX/Seattle (US) in SSO that was launched on Wed, 06 May 2026 UTC via an FALCON 9 launch vehicle from the Air Force Western Test Range (AFWTR). Payload-class satellites include a variety of spacecraft equipped with specific instruments for various scientific and technological missions. These include communications satellites like Starlink; space stations such as the ISS; scientific satellites like the Hubble; Earth observation satellites from companies like Planet Labs, Umbra, and HawkEye 360; GPS; miniature CubeSats for education and research; and military/defense satellites.

Loading next visibility...
Identifier
69027, 2026-101C
Orbit
SSO
Country
Flag of USUS
Related business
Manufacturer
SpaceX/Seattle
Mission
Operational spacecraft
Bus & Motor
STARLINK V2MO, Unknown motor
Mass
575 kg wet, ~530 kg dry
Launch date (UTC)
2026-05-06 (1 month ago)
Launch vehicle
FALCON 9
Launch site
Air Force Western Test Range (AFWTR)
Object type
Payload
Rocket body
Debris
Shape & HBR
Unknown shape, 14.5 m
Radar Cross Section
Large (>1 m²)

Expand to show TLE details & history
Last TLE update: 14 hours ago

TLE from 14 hours ago
0 STARLINK-37548
1 69027U 26101C   26168.52807080  .00015063  00000-0  46779-3 0  9998
2 69027  97.2837  23.3496 0002478  99.8037 260.3486 15.33454577  6623
Epoch: 2026-06-17T12:40Z
TLE epoch observation values (Epoch: 2026-06-17T12:40:25.317Z)
Latitude
0.00003°
Longitude
-72.54035°
Altitude
468.912 km
Speed
7.632 km/s
True Right ascension
01h 33m 23s
True Declination
0° 00' 00"
Sunlit
Object was in daylight at epoch
Visualization orbit readout
Latitude
Unknown
Longitude
Unknown
Altitude
Unknown
Speed
Unknown
Apparent Right ascension
Unknown
Apparent Declination
Unknown
Sunlit
N/A
Visualization observer readout
Local Sidereal Time
12:57:10
Azimuth
Unknown
Elevation
Unknown
Doppler factor
Unknown
Orbital elements
Apogee altitude
464.152 km
Perigee altitude
460.762 km
Semi-major axis
6,840.594 km
Eccentricity
0.00025
Inclination
97.2837°
RAAN
23.3496°
Arg. of periapsis
99.8037°
True anomaly
260.32061°
Mean anomaly
260.3486°
Eccentric anomaly
260.3346°
Mean motion
3.83621 °/min
Orbital period
93.84 mins
BSTAR
0.00046779
Loading maneuver chart data...
Computing Atmospheric mass density...
Loading historical data...
Loading historical data...
Loading historical data...
Loading historical data...
Loading historical data...
Loading historical data...
Loading historical data...

Documentation

Showing up to 5 results
|